Weather History for Hereford, TX

Change the Weather History Date:

Saturday, May 11, 2013

  Actual Average (KAMA) Record (KAMA)
Temperature  
Mean Temperature 58 °F 64 °F  
Max Temperature 76 °F 78 °F 99 °F (1962)
Min Temperature 41 °F 50 °F 34 °F (1946)
Degree Days  
Heating Degree Days 6 3  
Month to date heating degree days 46  
Since 1 July heating degree days 4134  
Cooling Degree Days 0 2  
Month to date cooling degree days 20  
Year to date cooling degree days 41  
Growing Degree Days 8 (Base 50)    
Moisture  
Dew Point 36 °F    
Average Humidity 48    
Maximum Humidity 81    
Minimum Humidity 19    
Precipitation  
Precipitation 0.00 in 0.07 in 1.66 in (1897)
Month to date precipitation 0.60  
Year to date precipitation 4.67  
Snow  
Snow 0.00 in 0.00 in 0.00 in ()
Month to date snowfall 0.2  
Since 1 July snowfall 17.8  
Snow Depth -    
Sea Level Pressure  
Sea Level Pressure 30.28 in    
Wind  
Wind Speed 9 mph (NNE)    
Max Wind Speed 21 mph    
Max Gust Speed 29 mph    
Visibility 10 miles    
Events      
T = Trace of Precipitation, MM = Missing Value Source: NWS Daily Summary

Daily Weather History Graph

Daily Weather History Graph

Search for Another Location

Airport:

Trip Planner

Search our weather history database for the weather conditions in past years. The results will help you decide how hot, cold, wet, or windy it might be!

Date:

Astronomy

May. 11, 2013 Rise Set
Actual Time 6:48 AM CDT 8:42 PM CDT
Civil Twilight 6:21 AM CDT 9:10 PM CDT
Nautical Twilight 5:47 AM CDT 9:44 PM CDT
Astronomical Twilight 5:11 AM CDT 10:20 PM CDT
Moon 7:59 AM CDT (5/11) 10:23 PM CDT (5/11)
Length of Visible Light 14h 49m
Length of Day
13h 53m
Waxing Crescent, 3% of the Moon is Illuminated
May 11
Waxing Crescent
May 17
First Quarter
May 24
Full
May 31
Last Quarter
Jun 8
New

Hourly Weather History & Observations

Time (CDT) Temp. Windchill Dew Point Humidity Pressure Visibility Wind Dir Wind Speed Gust Speed Precip Events Conditions
12:15 AM 48.0 °F - 36.9 °F 65% 30.25 in 10.0 mi West 3.5 mph - N/A   Clear
12:35 AM 46.0 °F 44.8 °F 36.9 °F 70% 30.26 in 10.0 mi SW 3.5 mph - N/A   Clear
12:55 AM 48.4 °F - 39.6 °F 72% 30.26 in 10.0 mi SSW 5.8 mph - N/A   Clear
1:15 AM 46.2 °F 42.7 °F 37.6 °F 72% 30.26 in 10.0 mi WNW 6.9 mph - N/A   Clear
1:35 AM 45.0 °F 40.1 °F 37.8 °F 76% 30.26 in 10.0 mi West 9.2 mph - N/A   Clear
1:55 AM 43.9 °F 40.5 °F 37.0 °F 77% 30.26 in 10.0 mi West 5.8 mph - N/A   Clear
2:15 AM 43.7 °F 41.1 °F 36.7 °F 76% 30.25 in 10.0 mi West 4.6 mph - N/A   Clear
2:35 AM 42.1 °F 37.7 °F 35.2 °F 77% 30.26 in 10.0 mi WNW 6.9 mph - N/A   Clear
2:55 AM 42.1 °F 37.7 °F 35.6 °F 78% 30.26 in 10.0 mi WNW 6.9 mph - N/A   Clear
3:15 AM 41.7 °F 37.3 °F 35.2 °F 78% 30.26 in 10.0 mi WNW 6.9 mph - N/A   Clear
3:35 AM 42.8 °F 39.3 °F 35.8 °F 76% 30.26 in 10.0 mi WNW 5.8 mph - N/A   Clear
3:55 AM 41.4 °F 39.4 °F 35.1 °F 78% 30.26 in 10.0 mi WNW 3.5 mph - N/A   Clear
4:15 AM 41.4 °F 36.8 °F 34.5 °F 77% 30.26 in 10.0 mi NW 6.9 mph - N/A   Clear
4:35 AM 41.2 °F 35.5 °F 35.6 °F 81% 30.26 in 10.0 mi NNW 9.2 mph - N/A   Clear
4:55 AM 43.0 °F 38.8 °F 37.2 °F 80% 30.26 in 10.0 mi NW 6.9 mph - N/A   Clear
5:15 AM 43.2 °F 38.4 °F 37.0 °F 79% 30.25 in 10.0 mi NW 8.1 mph - N/A   Clear
5:35 AM 43.5 °F 39.4 °F 37.4 °F 79% 30.25 in 10.0 mi NW 6.9 mph - N/A   Clear
5:55 AM 44.1 °F 39.5 °F 37.8 °F 78% 30.25 in 10.0 mi NW 8.1 mph - N/A   Clear
6:15 AM 43.7 °F 39.1 °F 37.4 °F 78% 30.26 in 10.0 mi NW 8.1 mph - N/A   Clear
6:35 AM 43.9 °F 39.9 °F 37.6 °F 78% 30.26 in 10.0 mi NNW 6.9 mph - N/A   Clear
6:55 AM 43.9 °F 39.3 °F 37.6 °F 78% 30.27 in 10.0 mi NW 8.1 mph - N/A   Clear
7:15 AM 44.1 °F 40.1 °F 37.4 °F 77% 30.28 in 10.0 mi NNW 6.9 mph - N/A   Clear
7:35 AM 45.5 °F 41.8 °F 38.5 °F 76% 30.28 in 10.0 mi NW 6.9 mph - N/A   Clear
7:55 AM 48.6 °F - 40.8 °F 75% 30.29 in 10.0 mi NW 8.1 mph - N/A   Clear
8:15 AM 51.6 °F - 41.7 °F 69% 30.31 in 10.0 mi NNW 9.2 mph - N/A   Clear
8:35 AM 54.5 °F - 42.3 °F 63% 30.31 in 10.0 mi NNW 10.4 mph - N/A   Clear
8:55 AM 57.0 °F - 42.8 °F 59% 30.31 in 10.0 mi North 11.5 mph - N/A   Clear
9:15 AM 60.1 °F - 42.8 °F 53% 30.31 in 10.0 mi North 11.5 mph - N/A   Clear
9:35 AM 62.4 °F - 42.4 °F 48% 30.31 in 10.0 mi North 12.7 mph - N/A   Clear
9:55 AM 65.7 °F - 41.0 °F 41% 30.31 in 10.0 mi North 12.7 mph - N/A   Clear
10:15 AM 66.6 °F - 40.3 °F 38% 30.31 in 10.0 mi North 9.2 mph 17.3 mph N/A   Clear
10:35 AM 67.8 °F - 39.7 °F 36% 30.31 in 10.0 mi North 12.7 mph - N/A   Clear
10:55 AM 69.3 °F - 38.7 °F 33% 30.31 in 10.0 mi NNE 15.0 mph - N/A   Clear
11:15 AM 70.5 °F - 37.0 °F 29% 30.31 in 10.0 mi North 11.5 mph 17.3 mph N/A   Clear
11:35 AM 70.5 °F - 36.5 °F 29% 30.31 in 10.0 mi NNE 10.4 mph 23.0 mph N/A   Clear
11:55 AM 71.4 °F - 35.6 °F 27% 30.31 in 10.0 mi NNE 11.5 mph 21.9 mph N/A   Clear
12:15 PM 71.6 °F - 35.1 °F 26% 30.31 in 10.0 mi ENE 13.8 mph 23.0 mph N/A   Clear
12:35 PM 72.5 °F - 34.2 °F 25% 30.31 in 10.0 mi NE 13.8 mph 21.9 mph N/A   Scattered Clouds
12:55 PM 72.7 °F - 34.3 °F 25% 30.31 in 10.0 mi NE 12.7 mph 20.7 mph N/A   Scattered Clouds
1:15 PM 74.3 °F - 33.3 °F 22% 30.30 in 10.0 mi ENE 16.1 mph 21.9 mph N/A   Clear
1:35 PM 73.6 °F - 32.0 °F 22% 30.29 in 10.0 mi NE 13.8 mph 21.9 mph N/A   Scattered Clouds
1:55 PM 75.0 °F - 30.6 °F 20% 30.29 in 10.0 mi NE 15.0 mph 18.4 mph N/A   Scattered Clouds
2:15 PM 73.8 °F - 30.2 °F 20% 30.29 in 10.0 mi NE 16.1 mph 21.9 mph N/A   Scattered Clouds
2:35 PM 74.7 °F - 29.7 °F 19% 30.29 in 10.0 mi NE 9.2 mph 16.1 mph N/A   Mostly Cloudy
2:55 PM 73.2 °F - 29.8 °F 20% 30.29 in 10.0 mi ENE 13.8 mph 19.6 mph N/A   Mostly Cloudy
3:15 PM 76.1 °F - 30.4 °F 19% 30.28 in 10.0 mi NE 11.5 mph 16.1 mph N/A   Scattered Clouds
3:35 PM 74.5 °F - 31.8 °F 21% 30.28 in 10.0 mi NE 20.7 mph 28.8 mph N/A   Mostly Cloudy
3:55 PM 73.8 °F - 31.1 °F 21% 30.28 in 10.0 mi NE 20.7 mph 27.6 mph N/A   Scattered Clouds
4:15 PM 72.5 °F - 29.3 °F 20% 30.28 in 10.0 mi NNE 12.7 mph 16.1 mph N/A   Mostly Cloudy
4:35 PM 72.9 °F - 32.5 °F 23% 30.28 in 10.0 mi NE 18.4 mph - N/A   Mostly Cloudy
4:55 PM 74.7 °F - 32.7 °F 22% 30.27 in 10.0 mi NNE 13.8 mph 24.2 mph N/A   Mostly Cloudy
5:15 PM 75.4 °F - 30.7 °F 19% 30.27 in 10.0 mi ENE 16.1 mph - N/A   Scattered Clouds
5:35 PM 72.7 °F - 31.6 °F 22% 30.27 in 10.0 mi ENE 12.7 mph 19.6 mph N/A   Scattered Clouds
5:55 PM 74.7 °F - 32.0 °F 21% 30.27 in 10.0 mi East 13.8 mph 24.2 mph N/A   Scattered Clouds
6:15 PM 74.5 °F - 32.0 °F 21% 30.27 in 10.0 mi East 12.7 mph - N/A   Clear
6:35 PM 72.7 °F - 32.9 °F 23% 30.27 in 10.0 mi ENE 15.0 mph 18.4 mph N/A   Clear
6:55 PM 73.0 °F - 32.9 °F 23% 30.27 in 10.0 mi ENE 9.2 mph 16.1 mph N/A   Clear
7:15 PM 72.9 °F - 33.1 °F 23% 30.27 in 10.0 mi East 9.2 mph 19.6 mph N/A   Clear
7:35 PM 71.2 °F - 33.8 °F 25% 30.27 in 10.0 mi ENE 9.2 mph - N/A   Scattered Clouds
7:55 PM 71.4 °F - 34.2 °F 25% 30.27 in 10.0 mi East 10.4 mph - N/A   Scattered Clouds
8:15 PM 69.6 °F - 34.7 °F 28% 30.27 in 10.0 mi East 12.7 mph 18.4 mph N/A   Mostly Cloudy
8:35 PM 66.7 °F - 35.2 °F 31% 30.28 in 10.0 mi East 10.4 mph - N/A   Scattered Clouds
8:55 PM 63.5 °F - 35.1 °F 35% 30.29 in 10.0 mi East 8.1 mph - N/A   Clear
9:15 PM 60.8 °F - 36.1 °F 40% 30.29 in 10.0 mi ENE 8.1 mph - N/A   Clear
9:35 PM 59.4 °F - 37.2 °F 44% 30.30 in 10.0 mi East 8.1 mph - N/A   Clear
9:55 PM 58.6 °F - 38.5 °F 47% 30.31 in 10.0 mi East 8.1 mph - N/A   Clear
10:15 PM 58.3 °F - 39.6 °F 50% 30.31 in 10.0 mi East 8.1 mph - N/A   Clear
10:35 PM 56.7 °F - 40.1 °F 54% 30.31 in 10.0 mi East 8.1 mph - N/A   Clear
10:55 PM 53.6 °F - 38.8 °F 57% 30.32 in 10.0 mi ESE 6.9 mph - N/A   Clear
11:15 PM 53.4 °F - 38.8 °F 58% 30.33 in 10.0 mi ESE 8.1 mph - N/A   Clear
11:35 PM 52.7 °F - 38.7 °F 59% 30.33 in 10.0 mi ESE 6.9 mph - N/A   Clear
11:55 PM 52.0 °F - 38.8 °F 61% 30.33 in 10.0 mi ESE 6.9 mph - N/A   Clear